This is the latest recevied weather packets stored in our database for station/object KC0RKM-13. If no packets are shown the sender has not sent any weather packets the latest 10 day(s).
| Time | Temp. | Humidity | Pressure | Rain* | Wind** | Luminosity | Snow |
|---|---|---|---|---|---|---|---|
| 1787977804 | 23.33° C | 61% | 1017.6 hPa | 0 mm | - | - | - |
| 1787977203 | 23.89° C | 60% | 1017.6 hPa | 0 mm | - | - | - |
| 1787976604 | 23.89° C | 59% | 1017.6 hPa | 0 mm | - | - | - |
| 1787976004 | 23.89° C | 59% | 1017.5 hPa | 0 mm | - | - | - |
| 1787975404 | 23.89° C | 60% | 1017.6 hPa | 0 mm | - | - | - |
| 1787974804 | 24.44° C | 60% | 1017.6 hPa | 0 mm | - | - | - |
| 1787974203 | 24.44° C | 59% | 1017.7 hPa | 0 mm | - | - | - |
| 1787973604 | 25° C | 58% | 1017.5 hPa | 0 mm | - | - | - |
| 1787973004 | 25° C | 57% | 1017.5 hPa | 0 mm | - | - | - |
| 1787972404 | 25.56° C | 56% | 1017.4 hPa | 0 mm | - | - | - |
| 1787971803 | 26.11° C | 54% | 1017.2 hPa | 0 mm | - | - | - |
| 1787971203 | -17.78° C | 100% | 0 hPa | 0 mm | - | - | - |
| 1787970603 | -17.78° C | 100% | 0 hPa | 0 mm | - | - | - |
| 1787970003 | -17.78° C | 100% | 0 hPa | 0 mm | - | - | - |
| 1787969404 | -17.78° C | 100% | 0 hPa | 0 mm | - | - | - |
| 1787968804 | 27.78° C | 49% | 1017 hPa | 0 mm | - | - | - |
| 1787968203 | 27.78° C | 49% | 1016.9 hPa | 0 mm | - | - | - |
| 1787967603 | 27.78° C | 49% | 1016.7 hPa | 0 mm | - | - | - |
| 1787967004 | 27.78° C | 49% | 1016.5 hPa | 0 mm | - | - | - |
| 1787966403 | 27.78° C | 49% | 1016.5 hPa | 0 mm | - | - | - |
| 1787965804 | 27.78° C | 49% | 1016.6 hPa | 0 mm | - | - | - |
| 1787965204 | 27.78° C | 49% | 1016.5 hPa | 0 mm | - | - | - |
| 1787964604 | 28.33° C | 48% | 1016.6 hPa | 0 mm | - | - | - |
| 1787964003 | 28.89° C | 47% | 1016.5 hPa | 0 mm | - | - | - |
| 1787963404 | 29.44° C | 46% | 1016.5 hPa | 0 mm | - | - | - |
* Rain latest hour (hover to see other rain measurements)
** Current wind speed in m/s (hover to see current wind gust speed)